Flag for U.S.A. Weather past 2 weeks in Bradenton, Florida, U.S.A.

Now
79 °F

Sunny.


Feels Like: 82 °F
Forecast: 74 / 91 °F
Wind: 14 mph from East

Location: Sarasota-Bradenton International Airport

Current Time: May 23, 2015 at 9:51:49 AM

Latest Report: May 23, 2015 at 8:53 AM


Visibility: 10 mi

Pressure: 30.18 "Hg

Humidity: 77%

Dew point: 71 °F

Location of BradentonLocation

Historic Weather in Bradenton — Graph

°F

Bradenton temperature yesterday

Maximum temperature yesterday: 91 °F (at 1:53 PM)
Minimum temperature yesterday: 73 °F (at 9:53 PM)
Average temperature yesterday: 81 °F

Past Weeks' High & Low Weather Summary

 TemperatureHumidityPressure
High91 °F (May 15, 3:53 PM)100% (May 9, 6:53 AM)30.19 "Hg (May 9, 6:53 AM)
Low65 °F (May 9, 6:53 AM)39% (May 15, 3:53 PM)29.94 "Hg (May 20, 5:53 PM)
Average78 °F76%30.08 "Hg
* Reported May 8 7:53 AM — May 23 7:53 AM, Bradenton, Weather by CustomWeather, © 2015

Note: Actual official high and low records may vary slightly from our data, if they occured in-between our weather recording intervals... More about our weather records

Advertising

Bradenton weather history for previous 24 hours

 ConditionsComfort  
Time TempWeatherWind HumidityBarometerVisibility
7:53 AM
Sat, May 23
75 °FSunny.8 mph88%30.16 "Hg10 mi
6:53 AM72 °FClear.10 mph93%30.14 "Hg10 mi
5:53 AM71 °FClear.8 mph90%30.13 "Hg10 mi
4:53 AM71 °FClear.8 mph93%30.11 "Hg10 mi
3:53 AM71 °FFog.7 mph93%30.11 "Hg6 mi
2:53 AM71 °FFog.7 mph93%30.11 "Hg4 mi
1:53 AM71 °FClear.5 mph90%30.13 "Hg10 mi
12:53 AM72 °FClear.No wind87%30.14 "Hg10 mi
11:53 PM
Fri, May 22
74 °FClear.3 mph76%30.13 "Hg10 mi
10:53 PM74 °FPassing clouds.5 mph74%30.14 "Hg10 mi
9:53 PM73 °FClear.13 mph76%30.13 "Hg10 mi
9:04 PM76 °FBroken clouds.21 mph74%30.13 "Hg10 mi
8:53 PM78 °FBroken clouds.17 mph71%30.12 "Hg10 mi
7:53 PM84 °FPassing clouds.9 mph67%30.09 "Hg10 mi
6:53 PM87 °FSunny.13 mph57%30.05 "Hg10 mi
5:53 PM88 °FSunny.14 mph52%30.03 "Hg10 mi
4:53 PM89 °FSunny.15 mph55%30.04 "Hg10 mi
3:53 PM89 °FThundershowers. Sunny.18 mph59%30.06 "Hg10 mi
2:53 PM89 °FScattered clouds.14 mph59%30.07 "Hg10 mi
1:53 PM91 °FPassing clouds.12 mph52%30.07 "Hg10 mi
12:53 PM87 °FOvercast.10 mph61%30.08 "Hg10 mi
11:53 AM86 °FPartly sunny.8 mph61%30.09 "Hg10 mi
10:53 AM85 °FSunny.7 mph65%30.08 "Hg10 mi
9:53 AM84 °FPassing clouds.9 mph70%30.07 "Hg10 mi
Weather by CustomWeather, © 2015

See weather overviewHow to use our weather pages